• MPC Preparation (Info)

  • MPEC 2023-P52 : 2023 PP

    The following Minor Planet Electronic Circular may be linked-to from your own Web pages, but must not otherwise be redistributed electronically.

    A form allowing access to any MPEC is at the bottom of this page.


    Read MPEC 2023-P51 Read MPEC 2023-P53


    M.P.E.C. 2023-P52                               Issued 2023 August 11, 01:51 UT
    
         The Minor Planet Electronic Circulars contain information on unusual
             minor planets, routine data on comets and natural satellites,
             and occasional editorial announcements.  They are published
        on behalf of Division F of the International Astronomical Union by the
              Minor Planet Center, Smithsonian Astrophysical Observatory,
                              Cambridge, MA 02138, U.S.A.
    			  
                 Prepared using the Tamkin Foundation Computer Network
    
                                  MPC@CFA.HARVARD.EDU
                URL https://www.minorplanetcenter.net/    ISSN 1523-6714
    
                                     2023 PP                                 
    
    
    Observations:
         K23P00P*KC2023 08 10.19070 22 42 58.63 -20 46 53.9          18.2 GVEP052W94
         K23P00P KC2023 08 10.19693 22 42 58.35 -20 45 57.6          18.0 GVEP052W94
         K23P00P KC2023 08 10.20316 22 42 58.07 -20 45 01.2          18.2 GVEP052W94
         K23P00P KB2023 08 10.28369 22 42 57.39 -20 34 25.9          18.2 rZEP052H36
         K23P00P KB2023 08 10.28696 22 42 57.29 -20 33 56.5          18.3 rZEP052H36
         K23P00P KB2023 08 10.29021 22 42 57.16 -20 33 27.3          18.0 rZEP052H36
         K23P00P KC2023 08 10.30116 22 42 53.61 -20 30 12.3          18.3 GVEP052X10
         K23P00P KC2023 08 10.30674 22 42 53.36 -20 29 21.5          18.4 GVEP052X10
         K23P00P KC2023 08 10.31229 22 42 53.12 -20 28 30.9          18.2 GVEP052X10
         K23P00P KC2023 08 10.36492 22 42 51.04 -20 20 31.6          18.4 GVEP052X10
         K23P00P KC2023 08 10.37051 22 42 50.84 -20 19 40.6          18.5 GVEP052X10
         K23P00P KC2023 08 10.37611 22 42 50.65 -20 18 49.6          18.5 GVEP052X10
         K23P00P KC2023 08 10.45365822 42 59.36 -20 06 40.6          19.1 GVEP052474
         K23P00P KC2023 08 10.45558422 42 59.32 -20 06 23.2          19.1 GVEP052474
         K23P00P KC2023 08 10.45750922 42 59.27 -20 06 06.3          19.1 GVEP052474
         K23P00P KC2023 08 10.45943522 42 59.22 -20 05 49.2          19.3 GVEP052474
         K23P00P KC2023 08 10.55234 22 42 58.34 -19 52 26.8          18.5 VqEP052E23
         K23P00P KC2023 08 10.56623 22 42 57.81 -19 50 25.6          18.4 VqEP052E23
         K23P00P KC2023 08 10.58011 22 42 57.33 -19 48 24.2                qEP052E23
         K23P00P 1C2023 08 10.88664 22 42 55.77 -19 06 02.0          19.3 GVEP052C40
         K23P00P 1C2023 08 10.88828 22 42 55.72 -19 05 47.0          18.5 GVEP052C40
         K23P00P 1C2023 08 10.89567 22 42 55.46 -19 04 45.2          18.9 GVEP052C40
         K23P00P 1C2023 08 10.90037 22 42 55.25 -19 04 03.2          18.4 GVEP052C40
         K23P00P 1C2023 08 10.90470 22 42 55.11 -19 03 26.0          18.8 GVEP052C40
         K23P00P 1C2023 08 10.91228 22 42 54.77 -19 02 20.3          18.4 GVEP052C40
         K23P00P 1C2023 08 10.92545 22 42 54.36 -19 00 29.9          19.5 GVEP052C40
         K23P00P 1C2023 08 10.93394 22 42 54.07 -18 59 17.6          19.3 GVEP052C40
         K23P00P 1C2023 08 10.94224 22 42 53.81 -18 58 07.3          18.5 GVEP052C40
         K23P00P KC2023 08 10.94508 22 42 56.10 -18 57 37.9          18.0 GXEP052K83
         K23P00P KC2023 08 10.94705 22 42 56.08 -18 57 21.9          18.2 GXEP052K83
         K23P00P KC2023 08 10.94884 22 42 55.99 -18 57 07.0          18.4 GXEP052K83
         K23P00P KC2023 08 10.96247 22 42 54.70 -18 55 16.7          19.0 GXEP052G02
         K23P00P KB2023 08 10.96297722 42 56.36 -18 55 05.4          18.1 GXEP052I93
         K23P00P KB2023 08 10.96448222 42 56.30 -18 54 52.5          18.6 GXEP052I93
         K23P00P KB2023 08 10.96598422 42 56.24 -18 54 39.9          18.5 GXEP052I93
         K23P00P KB2023 08 10.96733722 42 56.22 -18 54 28.5          18.4 GXEP052I93
         K23P00P KC2023 08 10.96871 22 42 54.50 -18 54 24.4          18.8 GXEP052G02
         K23P00P KC2023 08 10.97551 22 42 54.35 -18 53 26.3          19.1 GXEP052G02
         K23P00P KB2023 08 10.98316222 42 54.828-18 52 21.52         18.4 GXEP052B72
         K23P00P KB2023 08 10.98838922 42 54.691-18 51 37.28         18.3 GXEP052B72
         K23P00P KB2023 08 10.99398422 42 54.485-18 50 50.41         18.5 GXEP052B72
         K23P00P KC2023 08 11.01088922 42 53.48 -18 48 23.6          18.7 GXEP052L01
         K23P00P KC2023 08 11.01261222 42 53.42 -18 48 09.2          18.1 GXEP052L01
         K23P00P KC2023 08 11.01434522 42 53.35 -18 47 54.1          18.4 GXEP052L01
         K23P00P KC2023 08 11.01719222 42 53.25 -18 47 30.0          18.8 GXEP052L01
    
    Observer details:
    474 Mount John Observatory, Lake Tekapo.  Observers A. C. Gilmore, P. M.
        Kilmartin.  Measurer P. M. Kilmartin.  0.6-m f/6.2 reflector + CCD.
    B72 Soerth.  Observer B. Koch.  0.36-m f/7.6 reflector + CMO.
    C40 Kuban State University Astrophysical Observatory.  Observers A. Ivanov, A.
        Barcov, V. Ivanov, V. Lysenko, N. Yakovenko, N. Ivanova, N. Gorbunov, G.
        Kurbatov, P. Shchukin, V. Roshchupko.  Measurer A. Ivanov.  0.51-m f/8
        reflector + CCD.
    E23 Arcadia.  Observer A. Hidas.  0.35-m f/1.9 reflector + CCD.
    G02 KYSUCE Observatory, Kysucke Nove Mesto.  Observer M. Urbanik.  0.40-m
        f/5.5 Corrected Dall-Kirkham + CCD.
    H36 Sandlot Observatory, Scranton.  Observer G. Hug.  0.56-m f/4.8 reflector +
        CMO.
    I93 St Pardon de Conques.  Observer F. Losse.  0.40-m f/3.7 reflector + CMO.
    K83 Beppe Forti Astronomical Observatory, Montelupo.  Observers M. Tombelli,
        M. Iozzi, M. Lombardo, A. Squilloni, A. Mazzanti.  Measurers M. Tombelli,
        F. Bernardi.  0.40-m f/8 Ritchey-Chretien + CCD.
    L01 Visnjan Observatory, Tican.  Observers K. Korlevic, P. Dusevic, I.
        Forkapa, L. Gelo, L. Ilisevic, I. Paleka, E. Pettarin, V. Srdic.  Measurer
        I. Paleka.  1.0-m f/2.9 reflector + CCD.
    W94 MAP, San Pedro de Atacama.  Observers A. Maury, G. Attard.  Measurers D.
        Parrott, F. Signoret, J.-M. Mari.  0.28-m f/2.2 Schmidt astrograph + CCD.
    X10 OVTLN, San Pedro de Atacama.  Observers A. Maury, G. Attard, F. Signoret.
        Measurers A. Maury, G. Attard, D. Parrott, J.-M. Mari.  0.50-m f/4
        reflector + CCD.
    
    Orbital elements:
    2023 PP                                                  Earth MOID = 0.0588 AU
    Epoch 2023 Sept. 13.0 TT = JDT 2460200.5                Veres                   
    M  20.72079              (2000.0)            P               Q                  
    n   0.32353546     Peri.  319.71338     +0.25350830     +0.96426549             
    a   2.1014616      Node   324.77431     -0.84964607     +0.18391879             
    e   0.5102829      Incl.    7.66943     -0.46242308     +0.19069859             
    P   3.05           H   23.05          G   0.15           U   9                  
    Residuals in seconds of arc
    230810 W94  0.1-  0.2-    230810 474  0.1+  0.2+    230810 K83  0.1+  0.3-
    230810 W94  0.2-  0.2-    230810 E23  0.3+  0.6+    230810 G02  0.0   0.2+
    230810 W94  0.3-  0.1-    230810 E23  0.1+  0.6+    230810 I93  0.2+  0.2+
    230810 H36  0.3-  0.4+    230810 E23  1.0+  0.8+    230810 I93  0.0   0.4+
    230810 H36  0.1+  0.4+    230810 C40  0.0   1.5-    230810 I93  0.2-  0.4+
    230810 H36  0.0   0.4+    230810 C40  0.1+  0.4-    230810 I93  0.2+  0.3+
    230810 X10  0.0   0.0     230810 C40  0.1+  1.5-    230810 G02  0.1+  0.4-
    230810 X10  0.0   0.0     230810 C40  0.5-  0.4+    230810 G02  1.3+  0.1+
    230810 X10  0.0   0.2+    230810 C40  0.4-  0.8+    230810 B72  0.1-  0.1-
    230810 X10  0.2+  0.1+    230810 C40  1.3-  2.0+    230810 B72  0.3+  0.1-
    230810 X10  0.1+  0.1+    230810 C40  0.3-  0.2+    230810 B72  0.0   0.5-
    230810 X10  0.1+  0.0     230810 C40  0.0   0.1+    230811 L01  0.0   0.2-
    230810 474  0.1-  0.4-    230810 C40  0.7+  0.3-    230811 L01  0.0   0.4-
    230810 474  0.1+  0.1+    230810 K83  0.1-  0.6+    230811 L01  0.1-  0.0
    230810 474  0.1+  0.0     230810 K83  0.6+  0.1-    230811 L01  0.0   0.0
    
    Ephemeris:
    2023 PP                  a,e,i = 2.10, 0.51, 8                   q = 1.0291
    Date    TT    R. A. (2000) Decl.     Delta      r    Elong.  Phase     V
    2023 07 12    11 10 38.9 -59 43 28   0.1037  1.0291    94.0    80.2    21.0
    ...
    2023 07 27    22 10 55.8 -78 05 26   0.06062 1.0472   119.9    57.2    19.1
    ...
    2023 08 04    22 41 23.2 -41 15 16   0.06417 1.0690   146.9    31.2    18.6
    ...
    2023 08 10    22 42 56.3 -21 16 20   0.08160 1.0904   158.9    19.5    18.8
    2023 08 11    22 42 53.2 -18 48 30   0.08533 1.0943   160.1    18.3    18.8
    2023 08 12    22 42 46.9 -16 33 17   0.08924 1.0984   161.2    17.3    18.9
    ...
    2023 08 18    22 41 29.0 -06 32 41   0.1158  1.1247   165.0    13.5    19.4
    ...
    2023 08 26    22 39 10.3 +00 48 45   0.1573  1.1647   167.2    11.1    20.1
    ...
    2023 09 10    22 36 24.8 +06 24 05   0.2508  1.2516   165.5    11.6    21.2
    
    M. P. C. Staff               (C) Copyright 2023 MPC           M.P.E.C. 2023-P52
    


    Read MPEC 2023-P51 Read MPEC 2023-P53


    MPEC number:

    Enter an MPEC number in one of the following forms:

    • 1997-B01 (the full form)
    • J97B01 (the packed version of the full form)
    • B01 (the abbreviated form)